Flag for U.S.A. Weather past 2 weeks in New Haven, Connecticut, U.S.A.

Now
72 °F

Overcast.


Feels Like: 71 °F
Forecast: 70 / 83 °F
Wind: No wind

Location: Tweed-New Haven Airport

Current Time: Jul 7, 2015 at 3:55:52 AM

Latest Report: Jul 7, 2015 at 2:53 AM


Visibility: 10 mi

Pressure: 30.07 "Hg

Humidity: 84%

Dew point: 67 °F

Location of New HavenLocation

Historic Weather in New Haven — Graph

°F

New Haven temperature yesterday

Maximum temperature yesterday: 81 °F (at 1:53 PM)
Minimum temperature yesterday: 62 °F (at 3:53 AM)
Average temperature yesterday: 71 °F

Past Weeks' High & Low Weather Summary

 TemperatureHumidityPressure
High83 °F (Jun 22, 1:53 PM)97% (Jun 27, 4:53 AM)30.18 "Hg (Jun 27, 4:53 AM)
Low57 °F (Jun 25, 4:53 AM)42% (Jun 24, 5:53 PM)29.65 "Hg (Jun 28, 11:53 AM)
Average70 °F74%29.95 "Hg
* Reported Jun 22 1:53 AM — Jul 7 1:53 AM, New Haven, Weather by CustomWeather, © 2015

Note: Actual official high and low records may vary slightly from our data, if they occured in-between our weather recording intervals... More about our weather records

Advertising

New Haven weather history for previous 24 hours

 ConditionsComfort  
Time TempWeatherWind HumidityBarometerVisibility
1:53 AM
Tue, Jul 7
70 °FOvercast.No wind90%30.09 "Hg10 mi
12:53 AM70 °FOvercast.No wind90%30.10 "Hg10 mi
11:53 PM
Mon, Jul 6
69 °FPassing clouds.No wind87%30.10 "Hg10 mi
11:02 PM68 °FPassing clouds.No wind90%30.12 "Hg10 mi
10:53 PM68 °FPassing clouds.No wind87%30.11 "Hg10 mi
9:53 PM70 °FClear.No wind84%30.11 "Hg10 mi
8:53 PM71 °FScattered clouds.6 mph84%30.11 "Hg10 mi
7:53 PM73 °FBroken clouds.9 mph79%30.12 "Hg10 mi
7:00 PM75 °FScattered clouds.8 mph74%30.13 "Hg10 mi
5:53 PM75 °FMostly cloudy.8 mph76%30.14 "Hg10 mi
4:53 PM76 °FMostly cloudy.6 mph74%30.14 "Hg10 mi
3:53 PM76 °FCloudy.6 mph77%30.14 "Hg10 mi
2:53 PM78 °FCloudy.5 mph71%30.16 "Hg10 mi
1:53 PM81 °FBroken clouds.6 mph67%30.17 "Hg7 mi
12:53 PM80 °FPartly sunny.6 mph69%30.17 "Hg10 mi
11:53 AM78 °FPartly sunny.5 mph71%30.18 "Hg9 mi
10:53 AM75 °FPartly sunny.6 mph79%30.17 "Hg7 mi
9:53 AM73 °FPartly sunny.6 mph81%30.16 "Hg7 mi
8:53 AM72 °FPartly sunny.3 mph84%30.16 "Hg7 mi
7:53 AM70 °FPartly sunny.No wind93%30.17 "Hg7 mi
6:53 AM65 °FPartly sunny.No wind94%30.16 "Hg7 mi
5:53 AM62 °FPartly cloudy.No wind93%30.16 "Hg8 mi
4:53 AM62 °FClear.No wind93%30.15 "Hg9 mi
3:53 AM62 °FClear.No wind93%30.14 "Hg10 mi
Weather by CustomWeather, © 2015

See weather overviewHow to use our weather pages